Dallas, TX

8:49 AM CST on February 24, 2017 (GMT -0600)
Dallas-Fort Worth International

Weather History for KDFW - November, 2012

Change the Weather History Date:

Thursday, November 22, 2012

  Actual Average Record
Temperature  
Mean Temperature 66 °F 54 °F  
Max Temperature 78 °F 64 °F 89 °F (1955)
Min Temperature 53 °F 44 °F 23 °F (1898)
Degree Days  
Heating Degree Days 0 12  
Month to date heating degree days 111 176  
Since 1 July heating degree days 209 248  
Cooling Degree Days 1 0  
Month to date cooling degree days 39 27  
Year to date cooling degree days 3322 2750  
Growing Degree Days 16 (Base 50)    
Moisture  
Dew Point 49 °F    
Average Humidity 55    
Maximum Humidity 72    
Minimum Humidity 38    
Precipitation  
Precipitation T in 0.07 in 1.89 in (1913)
Month to date precipitation 0.05 2.11  
Year to date precipitation 29.31 32.99  
Snow  
Snow 0.00 in 0.00 in 5.00 in (1937)
Month to date snowfall 0.0 0.0  
Since 1 July snowfall 0.0 0.0  
Since 1 September snowfall 0.0 0.0  
Snow Depth 0.00 in    
Sea Level Pressure  
Sea Level Pressure 30.05 in    
Wind  
Wind Speed 12 mph (South)    
Max Wind Speed 25 mph    
Max Gust Speed 31 mph    
Visibility 10 miles    
Events      
T = Trace of Precipitation, MM = Missing Value Source: NWS Daily Summary

Daily Weather History Graph

Daily Weather History Graph

Search for Another Location

Airport or City:

Trip Planner

Search our weather history database for the weather conditions in past years. The results will help you decide how hot, cold, wet, or windy it might be!

Date:

Astronomy

Nov. 22, 2012 Rise Set
Actual Time 7:05 AM CST 5:23 PM CST
Civil Twilight 6:38 AM CST 5:49 PM CST
Nautical Twilight 6:08 AM CST 6:19 PM CST
Astronomical Twilight 5:39 AM CST 6:49 PM CST
Moon 1:55 PM CST (11/22) 1:42 AM CST (11/22)
Length of Visible Light 11h 11m
Length of Day
10h 17m
Waxing Gibbous, 71% of the Moon is Illuminated
Nov 22
Waxing Gibbous
Nov 28
Full
Dec 6
Last Quarter
Dec 13
New
Dec 19
First Quarter

Hourly Weather History & Observations

Time (CST) Temp. Dew Point Humidity Pressure Visibility Wind Dir Wind Speed Gust Speed Precip Events Conditions
12:53 AM 59.0 °F 45.0 °F 60% 30.07 in 10.0 mi South 9.2 mph - N/A   Mostly Cloudy
1:53 AM 60.1 °F 45.0 °F 57% 30.07 in 10.0 mi South 8.1 mph - N/A   Mostly Cloudy
2:53 AM 59.0 °F 45.0 °F 60% 30.07 in 10.0 mi South 6.9 mph - N/A   Mostly Cloudy
3:53 AM 57.9 °F 45.0 °F 62% 30.07 in 10.0 mi South 8.1 mph - N/A   Mostly Cloudy
4:53 AM 55.9 °F 44.1 °F 64% 30.09 in 10.0 mi South 9.2 mph - N/A   Scattered Clouds
5:53 AM 57.0 °F 45.0 °F 64% 30.08 in 10.0 mi South 10.4 mph - N/A   Scattered Clouds
6:53 AM 54.0 °F 45.0 °F 72% 30.08 in 10.0 mi South 9.2 mph - N/A   Scattered Clouds
7:53 AM 55.9 °F 46.0 °F 69% 30.08 in 10.0 mi South 9.2 mph - N/A   Mostly Cloudy
8:53 AM 61.0 °F 48.0 °F 62% 30.10 in 10.0 mi South 10.4 mph - N/A   Mostly Cloudy
9:53 AM 68.0 °F 46.9 °F 47% 30.11 in 10.0 mi SSW 17.3 mph - N/A   Mostly Cloudy
10:53 AM 69.1 °F 48.9 °F 49% 30.09 in 10.0 mi South 20.7 mph 24.2 mph N/A   Overcast
11:53 AM 75.0 °F 48.0 °F 38% 30.06 in 10.0 mi South 21.9 mph 27.6 mph N/A   Mostly Cloudy
12:53 PM 75.9 °F 50.0 °F 40% 30.02 in 10.0 mi South 19.6 mph - N/A   Mostly Cloudy
1:53 PM 77.0 °F 50.0 °F 39% 29.99 in 10.0 mi South 21.9 mph 28.8 mph N/A   Mostly Cloudy
2:53 PM 75.9 °F 51.1 °F 42% 29.99 in 10.0 mi SSW 19.6 mph - N/A   Mostly Cloudy
3:53 PM 75.0 °F 52.0 °F 44% 29.98 in 10.0 mi South 19.6 mph 26.5 mph N/A   Mostly Cloudy
4:53 PM 72.0 °F 52.0 °F 49% 30.00 in 10.0 mi South 16.1 mph 23.0 mph 0.00 in   Mostly Cloudy
5:53 PM 70.0 °F 53.1 °F 55% 30.01 in 10.0 mi South 10.4 mph - N/A   Mostly Cloudy
6:53 PM 68.0 °F 54.0 °F 61% 30.03 in 10.0 mi SSE 6.9 mph - N/A   Mostly Cloudy
7:53 PM 66.0 °F 54.0 °F 65% 30.04 in 10.0 mi SSE 8.1 mph - N/A   Scattered Clouds
8:53 PM 66.0 °F 52.0 °F 60% 30.05 in 10.0 mi SSE 8.1 mph - N/A   Scattered Clouds
9:53 PM 64.0 °F 52.0 °F 65% 30.06 in 10.0 mi SSE 8.1 mph - N/A   Partly Cloudy
10:53 PM 64.0 °F 51.1 °F 63% 30.07 in 10.0 mi SSE 4.6 mph - N/A   Clear
11:53 PM 62.1 °F 51.1 °F 67% 30.07 in 10.0 mi Calm Calm - N/A   Clear